Tracking 19242 objects as of 20-Sep-2018
HD Live streaming from Space Station
objects crossing your sky now

FENGYUN 1C DEB

Track FENGYUN 1C DEB now!
10-day predictions


NORAD ID: 36159
Int'l Code: 1999-025DSG
Perigee: 469.0 km
Apogee: 839.8 km
Inclination: 99.5 °
Period: 97.7 minutes
Semi major axis: 7025 km
RCS: 0.0089 m2 (small)
Launch date: May 10, 1999
Source: People's Republic of China (PRC)
Launch site: Taiyaun Space Center, China (TSC)

Note: This is SATELLITE DEBRIS
aabbcc
Your satellite tracking list
Your tracking list is empty




NASA's NSSDC Master Catalog

Two Line Element Set (TLE):
1 36159U 99025DSG 18262.47927302 +.00001205 +00000-0 +11218-3 0  9996
2 36159 099.5002 143.6877 0263881 249.2322 108.0427 14.74330648575525
Source of the keplerian elements: AFSPC